Miscellaneous Local Product
Issued by NWS Hastings, NE

Home | Current Version | Previous Version | Text Only | Print | Product List | Glossary On
Versions: 1 2 3 4 5 6 7 8 9 10 11 12 13 14 15 16 17 18 19 20 21 22 23 24 25 26 27 28 29 30 31 32 33 34 35 36 37 38 39 40 41 42 43 44 45 46 47 48 49 50
000
AXUS43 KGID 281502
MISGRI

GID CWA HOURLY WEATHER ROUNDUP
NATIONAL WEATHER SERVICE HASTINGS NE
1000 AM CDT WED JUN 28 2017

NOTE: "FAIR" INDICATES FEW OR NO CLOUDS BELOW 12,000 FEET WITH NO
SIGNIFICANT WEATHER AND/OR OBSTRUCTIONS TO VISIBILITY.

...SOUTH CENTRAL NEBRASKA...

CITY           SKY/WX    TMP DP  RH WIND       PRES   REMARKS
GRAND ISLAND   SUNNY     79  65  62 SW14      29.74F
HASTINGS       SUNNY     78  61  55 SW7       29.76F
KEARNEY        SUNNY     75  63  64 W15       29.76S
ORD            SUNNY     75  58  55 NW9       29.71S
YORK           SUNNY     77  66  69 SW13      29.73F
AURORA         SUNNY     78  64  60 SW10      29.74S
LEXINGTON      SUNNY     75  63  67 W9        29.76F
HOLDREGE       SUNNY     76  62  61 SW10G18   29.77S
HEBRON         MOSUNNY   81  67  62 SW16G22   29.75F

...NEBRASKA PANHANDLE...

CITY           SKY/WX    TMP DP  RH WIND       PRES   REMARKS
CHADRON        SUNNY     71  51  49 N6        29.84S
ALLIANCE       SUNNY     68  54  60 W9        29.87S
SCOTTSBLUFF    SUNNY     69  50  50 W10       29.89R
SIDNEY         SUNNY     73  49  42 NW12      29.90S

...WESTERN AND NORTH CENTRAL NEBRASKA...

CITY           SKY/WX    TMP DP  RH WIND       PRES   REMARKS
VALENTINE      SUNNY     76  53  44 NW12      29.75S
AINSWORTH      SUNNY     72  58  60 NW12G17   29.76S
ONEILL         SUNNY     73  60  64 NW10      29.71S
BROKEN BOW     SUNNY     73  58  59 NW14      29.75S
IMPERIAL       SUNNY     76  48  37 NW15      29.83F
NORTH PLATTE   SUNNY     75  58  55 NW13      29.79S
MCCOOK         SUNNY     78  57  48 NW16      29.79R

...EASTERN NEBRASKA...

CITY           SKY/WX    TMP DP  RH WIND       PRES   REMARKS
NORFOLK        CLOUDY    73  67  81 SW10      29.68F
SO SIOUX CITY  CLOUDY    70  68  93 SW8G18    29.67S
TEKAMAH        CLOUDY    76  68  76 S23G31    29.67F
COLUMBUS       CLOUDY    78  69  73 S16G23    29.70S
ALBION         CLOUDY    72  65  79 SW7       29.71S
OMAHA EPPLEY   CLOUDY    74  67  78 S16       29.71F
OFFUTT AFB     CLOUDY    74  68  79 S20       29.72F
MILLARD        CLOUDY    76  70  81 S8G18     29.72F
LINCOLN        CLOUDY    78  70  76 S13       29.73S
NEBRASKA CITY  CLOUDY    73  72  99 S15       29.75F
BEATRICE       SUNNY     79  69  72 S12       29.74F
FALLS CITY     CLOUDY    75  70  84 S8        29.77F

...NORTHERN KANSAS...

CITY           SKY/WX    TMP DP  RH WIND       PRES   REMARKS
GOODLAND       SUNNY     74  54  49 N15       29.86R
HILL CITY      SUNNY     79  67  66 SW15G25   29.77R
NORTON         SUNNY     79  59  50 SW13G24   29.77S
PHILLIPSBURG   SUNNY     82  64  54 S17G25    29.75S
SMITH CENTER   SUNNY     81  64  57 SW20G32   29.75S
HAYS           SUNNY     80  68  66 S25G31    29.76S
RUSSELL        SUNNY     80  68  66 S25G33    29.75F
CONCORDIA      SUNNY     82  69  64 SW23G31   29.74S
SALINA         SUNNY     82  70  66 S28G38    29.76F
TOPEKA         CLOUDY    76  70  82 S17G28    29.78F



USA.gov is the U.S. government's official web portal to all federal, state and local government web resources and services.